{"data":{"norad_id":43255,"epoch":"2026-09-19T12:55:35.357088Z","epoch_age_seconds":98440,"freshness":"FRESH","line1":"1 43255U 18030G   26262.53860367  .00000084  00000+0  22803-4 0  9997","line2":"2 43255  86.3915 250.9925 0002260  90.9711 269.1744 14.34217408443695","mean_motion":14.34217408,"eccentricity":0.000226,"inclination_deg":86.3915,"raan_deg":250.9925,"arg_perigee_deg":90.9711,"mean_anomaly_deg":269.1744,"bstar":2.2803e-5,"rev_number":44369,"period_min":100.40318796633,"perigee_km":776.05107992792,"apogee_km":779.28550391987,"semimajor_km":7155.8052919239,"source":"CELESTRAK","updated_at":"2026-09-20T09:00:36.329833Z"}}